EW2456 Weather Reports


time (UTC)temp
C
wind
direction
speed
KPH
gust
KPH
rain 1hr
cm
rain 24hr
cm
rain mn
cm
humidity
%
barometer
mb
20260503060106 6 338 0.0 4.8 0.00 0.03 0.00 80 1013.8
20260503054554 6 33 0.0 0.0 0.00 0.03 0.00 80 1013.9
20260503053039 6 33 0.0 0.0 0.00 0.03 0.00 80 1013.6
20260503051533 6 33 0.0 0.0 0.00 0.03 0.00 80 1013.6
20260503050032 6 33 0.0 0.0 0.00 0.03 0.00 80 1013.7
20260503044532 6 33 0.0 0.0 0.00 0.03 0.00 78 1013.8
20260503043029 6 33 0.0 0.0 0.00 0.03 0.00 78 1013.8
20260503041527 7 33 0.0 0.0 0.00 0.03 0.00 78 1013.6
20260503040034 7 33 0.0 0.0 0.00 0.03 0.03 78 1013.5
20260503034524 7 33 0.0 0.0 0.00 0.03 0.03 77 1013.4
20260503033028 7 33 0.0 0.0 0.00 0.03 0.03 76 1013.3
20260503031520 7 33 0.0 0.0 0.00 0.03 0.03 76 1013.1
20260503030019 8 33 0.0 0.0 0.00 0.03 0.03 76 1013.1
20260503024515 8 33 0.0 0.0 0.00 0.03 0.03 77 1013.0
20260503023014 8 33 0.0 0.0 0.00 0.03 0.03 77 1012.8
20260503021515 8 33 0.0 0.0 0.00 0.03 0.03 73 1012.5
20260503020012 8 33 0.0 0.0 0.00 0.03 0.03 70 1012.8
20260503014513 8 33 0.0 0.0 0.00 0.03 0.03 70 1012.9
20260503013008 9 33 0.0 0.0 0.00 0.03 0.03 69 1012.7
20260503011505 10 33 0.0 0.0 0.00 0.03 0.03 69 1012.4
20260503010003 10 33 0.0 0.0 0.00 0.03 0.03 69 1012.2
20260503004500 10 33 0.0 0.0 0.00 0.03 0.03 68 1011.9
20260503003102 11 33 0.0 0.0 0.00 0.03 0.03 67 1011.7
20260503001600 11 33 0.0 0.0 0.00 0.03 0.03 67 1011.5
20260503000059 11 165 0.0 0.0 0.00 0.03 0.03 67 1011.2
20260502234604 12 157 0.0 0.0 0.00 0.03 0.03 67 1011.0
20260502233059 12 157 0.0 0.0 0.00 0.03 0.03 65 1010.9
20260502231610 12 157 0.0 0.0 0.00 0.03 0.03 65 1010.9
20260502230058 12 157 0.0 3.2 0.00 0.03 0.03 65 1010.7
20260502224600 12 158 0.0 3.2 0.00 0.03 0.03 64 1010.8
20260502223057 12 112 0.0 0.0 0.00 0.03 0.03 64 1010.7
20260502221556 12 112 0.0 1.6 0.00 0.03 0.03 64 1010.8
20260502220057 12 360 0.0 4.8 0.00 0.03 0.03 63 1010.6
20260502214556 12 93 0.0 4.8 0.00 0.03 0.03 64 1010.4
20260502213106 12 93 0.0 3.2 0.00 0.03 0.03 63 1010.5
20260502211555 13 92 0.0 4.8 0.00 0.03 0.03 63 1010.4
20260502210054 13 167 1.6 9.7 0.00 0.03 0.03 62 1010.5
20260502204602 12 133 1.6 9.7 0.00 0.03 0.03 63 1010.6
20260502203053 12 119 1.6 9.7 0.00 0.03 0.03 63 1010.6
20260502201553 13 140 3.2 14.5 0.00 0.03 0.03 62 1010.6
20260502200052 13 50 3.2 14.5 0.00 0.03 0.03 64 1010.5
20260502194551 13 88 3.2 11.3 0.00 0.03 0.03 63 1010.7
20260502193052 12 82 6.4 17.7 0.00 0.03 0.03 64 1011.0
20260502191550 12 32 4.8 14.5 0.00 0.03 0.03 64 1011.2
20260502190048 12 67 6.4 14.5 0.00 0.03 0.03 67 1011.1
20260502184555 12 71 4.8 9.7 0.00 0.03 0.03 67 1011.2
20260502183044 12 37 3.2 11.3 0.00 0.03 0.03 70 1011.3
20260502181544 12 47 3.2 11.3 0.00 0.03 0.03 71 1011.5
20260502163036 11 57 4.8 11.3 0.00 0.03 0.03 71 1012.1
20260502161535 11 67 4.8 14.5 0.00 0.03 0.03 70 1012.6
20260502151530 11 40 9.7 16.1 0.00 0.03 0.03 71 1012.3
20260502123017 10 344 3.2 8.0 0.00 0.00 0.00 69 1011.2
20260502121533 10 17 4.8 9.7 0.00 0.00 0.00 69 1011.0
20260502114515 11 11 3.2 6.4 0.00 0.00 0.00 67 1011.2
20260502113015 11 5 1.6 9.7 0.00 0.00 0.00 67 1011.1
20260502111514 11 15 3.2 8.0 0.00 0.00 0.00 66 1011.4
20260502110016 11 355 3.2 9.7 0.00 0.00 0.00 66 1011.6
20260502104513 11 340 3.2 8.0 0.00 0.00 0.00 67 1011.6
20260502103012 11 24 3.2 8.0 0.00 0.00 0.00 68 1011.5
20260502101513 11 333 6.4 12.9 0.00 0.00 0.00 68 1011.4
20260502091509 11 327 1.6 4.8 0.00 0.00 0.00 74 1011.4
20260502071502 11 144 0.0 0.0 0.00 0.00 0.00 74 1010.3
20260502070101 11 144 0.0 0.0 0.00 0.03 0.00 73 1010.4
20260502064603 11 144 0.0 0.0 0.00 0.03 0.00 73 1010.6